Simultaneous Nadir Overpasses (SNOs) Predictions

Prediction of SNOs between LANDSAT-8 and NPP Satellite Orbit:

Table of predicted SNOs for the next 14.0 days since TLE Epoch: 5/28/2016
Index Date (LANDSAT-8) Time (LANDSAT-8) Lat,Lon (LANDSAT-8) SZA (LANDSAT-8 ) Date (NPP) Time (NPP) Lat,Lon (NPP) SZA (NPP ) Distance(km) Time Diff (sec)
1 05/29/2016 21:35:32 -70.51, 33.07 131.37 05/29/2016 21:34:20 -70.54, 32.34 131.31 27.31 72
2 05/29/2016 22:25:03 70.19,-159.75 48.32 05/29/2016 22:25:00 70.20,-159.82 48.33 2.57 3
3 05/29/2016 23:14:33 -70.08, 7.72 131.80 05/29/2016 23:15:41 -70.07, 7.70 131.81 1.28 68
4 06/01/2016 13:52:07 -70.23, 148.55 132.01 06/01/2016 13:51:09 -70.22, 148.60 132.01 2.25 58
5 06/01/2016 14:41:34 70.13, -43.96 47.89 06/01/2016 14:41:54 70.15, -43.97 47.91 2.57 20
6 06/01/2016 15:31:15 -69.41, 122.69 132.81 06/01/2016 15:32:23 -69.39, 124.47 132.88 69.97 68
7 06/04/2016 06:08:37 -70.22, -95.59 132.34 06/04/2016 06:08:04 -70.23, -95.64 132.32 2.17 33
8 06/04/2016 06:58:04 70.11, 71.90 47.55 06/04/2016 06:58:48 70.10, 71.86 47.54 1.80 44
9 06/06/2016 21:35:32 70.53,-146.89 47.69 06/06/2016 21:34:21 70.59,-147.75 47.78 32.62 71
10 06/06/2016 22:25:07 -70.15, 20.20 132.68 06/06/2016 22:24:56 -70.14, 20.28 132.70 3.70 11
11 06/06/2016 23:14:34 70.04,-172.32 47.21 06/06/2016 23:15:41 70.07,-172.31 47.23 2.69 67
12 06/09/2016 13:52:07 70.24, -31.44 47.17 06/09/2016 13:51:09 70.24, -31.43 47.18 0.48 58
13 06/09/2016 14:41:37 -70.14, 136.05
